| time (UTC) | temp F | wind direction | speed MPH | gust MPH | rain 1hr in | rain 24hr in | rain mn in | humidity % | barometer mb |
| 20260831005946 | 65 | 34 | 2.0 | 3.0 | 0.15 | 1.06 | 1.06 | 99 | 679.8 |
| 20260831005051 | 66 | 39 | 3.0 | 5.0 | 0.13 | 1.03 | 1.03 | 99 | 679.9 |
| 20260831004019 | 66 | 16 | 2.0 | 4.0 | 0.07 | 0.98 | 0.98 | 99 | 679.9 |
| 20260831003019 | 66 | 357 | 1.0 | 3.0 | 0.07 | 0.96 | 0.96 | 99 | 679.9 |
| 20260831001945 | 66 | 25 | 3.0 | 6.0 | 0.03 | 0.93 | 0.93 | 99 | 679.9 |
| 20260831001019 | 66 | 18 | 2.0 | 3.0 | 0.02 | 0.92 | 0.92 | 99 | 679.9 |
| 20260830235946 | 66 | 21 | 2.0 | 4.0 | 0.03 | 0.92 | 0.92 | 99 | 679.9 |
| 20260830235006 | 66 | 58 | 2.0 | 3.0 | 0.02 | 0.91 | 0.91 | 99 | 679.9 |
| 20260830234020 | 66 | 357 | 1.0 | 3.0 | 0.02 | 0.90 | 0.90 | 99 | 679.9 |
| 20260830233036 | 66 | 49 | 2.0 | 3.0 | 0.01 | 0.89 | 0.89 | 99 | 679.9 |
| 20260830232027 | 66 | 5 | 3.0 | 6.0 | 0.02 | 0.89 | 0.89 | 99 | 679.9 |
| 20260830230946 | 66 | 21 | 1.0 | 3.0 | 0.03 | 0.89 | 0.89 | 99 | 679.9 |
| 20260830225947 | 66 | 29 | 1.0 | 2.0 | 0.03 | 0.89 | 0.89 | 99 | 679.9 |
| 20260830224947 | 66 | 324 | 1.0 | 4.0 | 0.04 | 0.89 | 0.89 | 99 | 679.9 |
| 20260830223947 | 66 | 14 | 2.0 | 4.0 | 0.05 | 0.89 | 0.89 | 99 | 679.9 |
| 20260830223017 | 66 | 9 | 1.0 | 3.0 | 0.08 | 0.89 | 0.89 | 99 | 679.9 |
| 20260830222017 | 66 | 307 | 1.0 | 2.0 | 0.09 | 0.87 | 0.87 | 99 | 679.9 |
| 20260830221018 | 66 | 300 | 1.0 | 2.0 | 0.07 | 0.86 | 0.86 | 99 | 679.9 |
| 20260830220018 | 67 | 293 | 1.0 | 3.0 | 0.08 | 0.86 | 0.86 | 99 | 679.9 |
| 20260830215018 | 67 | 331 | 3.0 | 5.0 | 0.09 | 0.85 | 0.85 | 99 | 679.9 |
| 20260830214018 | 67 | 294 | 2.0 | 3.0 | 0.08 | 0.84 | 0.84 | 99 | 679.9 |
| 20260830213018 | 67 | 313 | 2.0 | 3.0 | 0.06 | 0.81 | 0.81 | 99 | 679.9 |
| 20260830212039 | 67 | 278 | 1.0 | 2.0 | 0.05 | 0.79 | 0.79 | 99 | 679.9 |
| 20260830211018 | 67 | 312 | 2.0 | 3.0 | 0.07 | 0.79 | 0.79 | 99 | 679.9 |
| 20260830205948 | 67 | 329 | 0.0 | 2.0 | 0.11 | 0.78 | 0.78 | 99 | 679.9 |
| 20260830205019 | 67 | 299 | 2.0 | 3.0 | 0.11 | 0.77 | 0.77 | 99 | 679.9 |
| 20260830204019 | 66 | 1 | 1.0 | 3.0 | 0.12 | 0.76 | 0.76 | 99 | 679.9 |
| 20260830203019 | 66 | 33 | 2.0 | 3.0 | 0.11 | 0.75 | 0.75 | 99 | 679.9 |
| 20260830202019 | 66 | 314 | 1.0 | 2.0 | 0.10 | 0.74 | 0.74 | 99 | 679.9 |
| 20260830201059 | 65 | 344 | 1.0 | 3.0 | 0.12 | 0.72 | 0.72 | 99 | 679.8 |
| 20260830200019 | 65 | 343 | 2.0 | 4.0 | 0.09 | 0.67 | 0.67 | 99 | 679.9 |
| 20260830195019 | 65 | 351 | 1.0 | 4.0 | 0.07 | 0.66 | 0.66 | 99 | 679.8 |
| 20260830194009 | 65 | 331 | 1.0 | 3.0 | 0.06 | 0.64 | 0.64 | 99 | 679.8 |
| 20260830193020 | 65 | 342 | 2.0 | 3.0 | 0.06 | 0.64 | 0.64 | 99 | 679.8 |
| 20260830192020 | 65 | 310 | 1.0 | 3.0 | 0.06 | 0.64 | 0.64 | 99 | 679.8 |
| 20260830191020 | 65 | 296 | 1.0 | 3.0 | 0.02 | 0.60 | 0.60 | 99 | 679.8 |
| 20260830190020 | 65 | 273 | 1.0 | 3.0 | 0.02 | 0.58 | 0.58 | 99 | 679.8 |
| 20260830185020 | 65 | 273 | 1.0 | 1.0 | 0.02 | 0.58 | 0.58 | 99 | 679.8 |
| 20260830183950 | 65 | 287 | 1.0 | 2.0 | 0.02 | 0.58 | 0.58 | 99 | 679.8 |
| 20260830182951 | 65 | 303 | 0.0 | 1.0 | 0.02 | 0.58 | 0.58 | 99 | 679.8 |
| 20260830181936 | 65 | 281 | 1.0 | 1.0 | 0.04 | 0.58 | 0.58 | 99 | 679.9 |
| 20260830181021 | 66 | 313 | 1.0 | 1.0 | 0.06 | 0.57 | 0.57 | 99 | 679.9 |
| 20260830180040 | 66 | 321 | 0.0 | 1.0 | 0.08 | 0.56 | 0.56 | 99 | 679.9 |
| 20260830174951 | 66 | 292 | 1.0 | 2.0 | 0.15 | 0.56 | 0.56 | 99 | 679.9 |
| 20260830173951 | 66 | 193 | 0.0 | 1.0 | 0.22 | 0.55 | 0.55 | 99 | 679.9 |
| 20260830173021 | 67 | 356 | 1.0 | 3.0 | 0.28 | 0.55 | 0.55 | 99 | 679.9 |
| 20260830171958 | 67 | 10 | 1.0 | 3.0 | 0.31 | 0.54 | 0.54 | 99 | 679.9 |
| 20260830171022 | 66 | 13 | 1.0 | 4.0 | 0.32 | 0.52 | 0.52 | 99 | 679.9 |
| 20260830170042 | 66 | 16 | 1.0 | 2.0 | 0.30 | 0.48 | 0.48 | 99 | 679.9 |
| 20260830164952 | 67 | 4 | 0.0 | 2.0 | 0.23 | 0.41 | 0.41 | 99 | 679.9 |
| 20260830163957 | 67 | 10 | 1.0 | 3.0 | 0.16 | 0.34 | 0.34 | 99 | 679.9 |
| 20260830162952 | 67 | 16 | 0.0 | 2.0 | 0.09 | 0.27 | 0.27 | 99 | 679.9 |
| 20260830162023 | 67 | 58 | 1.0 | 3.0 | 0.04 | 0.22 | 0.22 | 99 | 679.9 |
| 20260830160937 | 67 | 25 | 1.0 | 3.0 | 0.02 | 0.20 | 0.20 | 99 | 679.9 |
| 20260830155938 | 67 | 11 | 0.0 | 1.0 | 0.00 | 0.19 | 0.19 | 99 | 679.9 |
| 20260830155018 | 67 | 356 | 2.0 | 2.0 | 0.01 | 0.18 | 0.18 | 99 | 679.9 |
| 20260830153953 | 67 | 332 | 1.0 | 1.0 | 0.02 | 0.18 | 0.18 | 99 | 679.9 |
| 20260830153027 | 67 | 352 | 2.0 | 3.0 | 0.02 | 0.18 | 0.18 | 99 | 679.9 |
| 20260830152023 | 66 | 343 | 2.0 | 3.0 | 0.02 | 0.18 | 0.18 | 99 | 679.9 |
| 20260830151103 | 66 | 7 | 1.0 | 3.0 | 0.02 | 0.18 | 0.18 | 99 | 679.9 |
| 20260830145953 | 66 | 343 | 1.0 | 2.0 | 0.02 | 0.18 | 0.18 | 99 | 679.8 |
| 20260830145023 | 65 | 344 | 1.0 | 2.0 | 0.01 | 0.17 | 0.17 | 99 | 679.8 |
| 20260830143938 | 65 | 263 | 1.0 | 2.0 | 0.01 | 0.17 | 0.17 | 99 | 679.8 |
| 20260830143031 | 65 | 335 | 1.0 | 1.0 | 0.01 | 0.16 | 0.16 | 99 | 679.8 |
| 20260830142024 | 65 | 281 | 1.0 | 3.0 | 0.02 | 0.16 | 0.16 | 99 | 679.8 |
| 20260830141044 | 65 | 288 | 2.0 | 4.0 | 0.04 | 0.16 | 0.16 | 99 | 679.8 |
| 20260830140024 | 65 | 277 | 1.0 | 3.0 | 0.07 | 0.16 | 0.16 | 99 | 679.8 |
| 20260830134939 | 65 | 272 | 1.0 | 4.0 | 0.08 | 0.16 | 0.16 | 99 | 679.8 |
| 20260830134025 | 65 | 236 | 2.0 | 3.0 | 0.13 | 0.16 | 0.16 | 99 | 679.8 |
| 20260830133025 | 65 | 220 | 1.0 | 3.0 | 0.14 | 0.15 | 0.15 | 99 | 679.8 |
| 20260830132024 | 65 | 239 | 1.0 | 2.0 | 0.14 | 0.15 | 0.15 | 99 | 679.8 |
| 20260830131025 | 65 | 256 | 1.0 | 3.0 | 0.12 | 0.13 | 0.13 | 99 | 679.8 |
| 20260830125940 | 65 | 262 | 1.0 | 3.0 | 0.08 | 0.09 | 0.09 | 99 | 679.8 |
| 20260830125025 | 65 | 257 | 3.0 | 5.0 | 0.07 | 0.08 | 0.08 | 99 | 679.8 |
| 20260830124025 | 65 | 210 | 3.0 | 4.0 | 0.03 | 0.03 | 0.03 | 99 | 679.8 |
| 20260830123026 | 65 | 250 | 1.0 | 3.0 | 0.01 | 0.01 | 0.01 | 99 | 679.8 |
| 20260830122046 | 65 | 226 | 3.0 | 6.0 | 0.01 | 0.01 | 0.01 | 99 | 679.8 |
| 20260830121026 | 65 | 235 | 2.0 | 4.0 | 0.01 | 0.01 | 0.01 | 99 | 679.9 |
| 20260830115956 | 66 | 237 | 3.0 | 4.0 | 0.01 | 0.01 | 0.01 | 99 | 679.9 |
| 20260830115026 | 66 | 235 | 3.0 | 6.0 | 0.01 | 0.01 | 0.01 | 99 | 679.9 |
| 20260830113941 | 66 | 222 | 3.0 | 7.0 | 0.00 | 0.00 | 0.00 | 99 | 679.9 |
| 20260830113026 | 66 | 280 | 1.0 | 3.0 | 0.00 | 0.00 | 0.00 | 99 | 679.9 |
| 20260830111957 | 66 | 228 | 0.0 | 2.0 | 0.00 | 0.00 | 0.00 | 99 | 679.9 |
| 20260830110941 | 66 | 290 | 0.0 | 1.0 | 0.00 | 0.00 | 0.00 | 99 | 679.8 |
| 20260830105957 | 66 | 227 | 0.0 | 2.0 | 0.00 | 0.00 | 0.00 | 99 | 679.9 |
| 20260830105027 | 66 | 154 | 0.0 | 2.0 | 0.00 | 0.00 | 0.00 | 99 | 679.9 |
| 20260830104027 | 66 | 197 | 1.0 | 1.0 | 0.00 | 0.00 | 0.00 | 99 | 679.9 |
| 20260830102957 | 66 | 126 | 1.0 | 3.0 | 0.00 | 0.00 | 0.00 | 99 | 679.9 |
| 20260830102032 | 66 | 108 | 1.0 | 3.0 | 0.00 | 0.00 | 0.00 | 99 | 679.9 |
| 20260830101047 | 66 | 226 | 0.0 | 1.0 | 0.00 | 0.00 | 0.00 | 99 | 679.9 |
| 20260830100027 | 67 | 129 | 1.0 | 2.0 | 0.00 | 0.00 | 0.00 | 99 | 679.9 |
| 20260830094958 | 67 | 116 | 1.0 | 2.0 | 0.00 | 0.00 | 0.00 | 99 | 679.9 |
| 20260830094027 | 67 | 121 | 1.0 | 3.0 | 0.00 | 0.00 | 0.00 | 99 | 679.9 |
| 20260830093028 | 67 | 123 | 4.0 | 9.0 | 0.00 | 0.00 | 0.00 | 99 | 679.9 |
| 20260830092028 | 67 | 78 | 1.0 | 2.0 | 0.00 | 0.00 | 0.00 | 99 | 679.9 |
| 20260830091028 | 67 | 95 | 1.0 | 2.0 | 0.00 | 0.00 | 0.00 | 99 | 679.9 |
| 20260830090018 | 67 | 109 | 0.0 | 2.0 | 0.00 | 0.00 | 0.00 | 99 | 679.9 |
| 20260830085118 | 67 | 64 | 0.0 | 2.0 | 0.00 | 0.00 | 0.00 | 99 | 679.9 |
| 20260830083944 | 67 | 0.0 | 0.0 | 0.00 | 0.00 | 0.00 | 99 | 679.9 | |
| 20260830083029 | 67 | 72 | 1.0 | 3.0 | 0.00 | 0.00 | 0.00 | 99 | 679.9 |
| 20260830081959 | 67 | 16 | 1.0 | 2.0 | 0.00 | 0.00 | 0.00 | 99 | 679.9 |
| 20260830081043 | 67 | 27 | 1.0 | 2.0 | 0.00 | 0.00 | 0.00 | 99 | 679.9 |
| 20260830080019 | 66 | 10 | 1.0 | 2.0 | 0.00 | 0.00 | 0.00 | 99 | 679.9 |
| 20260830074944 | 66 | 6 | 1.0 | 3.0 | 0.00 | 0.00 | 0.00 | 99 | 679.9 |
| 20260830074029 | 66 | 14 | 1.0 | 3.0 | 0.00 | 0.00 | 0.00 | 99 | 679.9 |
| 20260830073029 | 66 | 12 | 1.0 | 1.0 | 0.00 | 0.00 | 0.00 | 99 | 679.9 |
| 20260830072005 | 66 | 352 | 0.0 | 1.0 | 0.00 | 0.00 | 0.00 | 99 | 679.9 |
| 20260830070959 | 67 | 335 | 0.0 | 1.0 | 0.00 | 0.00 | 0.00 | 99 | 679.9 |
| 20260830070000 | 67 | 1 | 1.0 | 2.0 | 0.00 | 0.00 | 0.00 | 99 | 679.9 |
| 20260830065030 | 67 | 12 | 1.0 | 2.0 | 0.00 | 0.00 | 0.00 | 99 | 679.9 |
| 20260830064020 | 67 | 2 | 0.0 | 1.0 | 0.00 | 0.00 | 0.00 | 99 | 679.9 |
| 20260830063000 | 67 | 0.0 | 0.0 | 0.00 | 0.00 | 0.00 | 99 | 679.9 | |
| 20260830062007 | 67 | 11 | 1.0 | 2.0 | 0.00 | 0.00 | 0.00 | 99 | 679.9 |
| 20260830061000 | 67 | 15 | 1.0 | 3.0 | 0.00 | 0.00 | 0.00 | 99 | 679.9 |
| 20260830060030 | 67 | 46 | 0.0 | 1.0 | 0.00 | 0.00 | 0.00 | 99 | 679.9 |
| 20260830055126 | 67 | 75 | 1.0 | 2.0 | 0.00 | 0.00 | 0.00 | 99 | 679.9 |
| 20260830054001 | 67 | 9 | 1.0 | 2.0 | 0.00 | 0.00 | 0.00 | 99 | 679.9 |
| 20260830053031 | 67 | 12 | 1.0 | 2.0 | 0.00 | 0.00 | 0.00 | 99 | 679.9 |
| 20260830052001 | 67 | 28 | 1.0 | 3.0 | 0.00 | 0.00 | 0.00 | 99 | 679.9 |
| 20260830051031 | 67 | 33 | 0.0 | 1.0 | 0.00 | 0.00 | 0.00 | 99 | 679.9 |
| 20260830045947 | 67 | 23 | 1.0 | 2.0 | 0.00 | 0.00 | 0.00 | 99 | 679.9 |
| 20260830045057 | 67 | 12 | 2.0 | 3.0 | 0.00 | 0.00 | 0.00 | 99 | 679.9 |
| 20260830044002 | 67 | 2 | 2.0 | 3.0 | 0.00 | 0.00 | 0.00 | 99 | 679.9 |
| 20260830043002 | 67 | 11 | 2.0 | 3.0 | 0.00 | 0.00 | 0.00 | 99 | 679.9 |
| 20260830042038 | 66 | 5 | 2.0 | 4.0 | 0.00 | 0.00 | 0.00 | 99 | 679.9 |
| 20260830041017 | 66 | 7 | 2.0 | 3.0 | 0.00 | 0.00 | 0.00 | 99 | 679.9 |
| 20260830040002 | 66 | 2 | 2.0 | 4.0 | 0.00 | 0.00 | 0.00 | 99 | 679.9 |
| 20260830035017 | 66 | 2 | 2.0 | 3.0 | 0.00 | 0.00 | 0.00 | 99 | 679.9 |
| 20260830034018 | 66 | 9 | 3.0 | 6.0 | 0.00 | 0.00 | 0.00 | 99 | 679.9 |
| 20260830033002 | 66 | 3 | 3.0 | 4.0 | 0.00 | 0.00 | 0.00 | 99 | 679.9 |
| 20260830032003 | 66 | 5 | 2.0 | 3.0 | 0.00 | 0.00 | 0.00 | 99 | 679.9 |
| 20260830031100 | 67 | 353 | 1.0 | 2.0 | 0.00 | 0.00 | 0.00 | 99 | 679.9 |
| 20260830030003 | 67 | 8 | 3.0 | 5.0 | 0.00 | 0.00 | 0.00 | 99 | 679.9 |
| 20260830025003 | 67 | 11 | 2.0 | 3.0 | 0.00 | 0.00 | 0.00 | 99 | 679.9 |
| 20260830024018 | 67 | 359 | 2.0 | 3.0 | 0.00 | 0.00 | 0.00 | 99 | 679.9 |
| 20260830023019 | 68 | 5 | 2.0 | 3.0 | 0.00 | 0.00 | 0.00 | 99 | 679.9 |
| 20260830022004 | 68 | 11 | 2.0 | 3.0 | 0.00 | 0.00 | 0.00 | 99 | 679.9 |
| 20260830021004 | 68 | 7 | 2.0 | 3.0 | 0.00 | 0.00 | 0.00 | 99 | 679.9 |
| 20260830020019 | 69 | 0.0 | 0.0 | 0.00 | 0.00 | 0.00 | 99 | 679.9 | |
| 20260830015019 | 69 | 11 | 2.0 | 4.0 | 0.00 | 0.00 | 0.00 | 99 | 679.9 |
| 20260830014019 | 69 | 18 | 1.0 | 3.0 | 0.00 | 0.00 | 0.00 | 99 | 679.9 |
| 20260830013019 | 69 | 19 | 2.0 | 4.0 | 0.00 | 0.00 | 0.00 | 99 | 680.0 |
| 20260830012019 | 69 | 14 | 2.0 | 5.0 | 0.00 | 0.00 | 0.00 | 99 | 680.0 |
| 20260830011020 | 70 | 10 | 3.0 | 6.0 | 0.00 | 0.00 | 0.00 | 99 | 680.0 |